Location: Unspecified
(33.6682°S, 0.0000°E)
Time: 22:46:10
(UTC+00:00)

S-56A Canister/Altair - All Passes

Search period start: 17 June 2019 00:00
Search period end: 27 June 2019 00:00
Orbit: 633 x 2499 km, 38.9° (Epoch: 16 June)

Date Brightness Start Highest point End Pass type
(mag) Time Alt. Az. Time Alt. Az. Time Alt. Az.
17 Jun - 03:22:37 10° NNW 03:30:27 39° NE 03:41:34 10° ESE visible
17 Jun - 05:24:58 10° WNW 05:35:15 89° NNE 05:49:52 10° ESE visible
17 Jun - 07:30:04 10° W 07:42:37 71° S 07:57:59 10° E daylight
17 Jun - 09:36:10 10° WSW 09:50:43 85° SSE 10:05:32 10° ENE daylight
17 Jun - 11:42:55 10° WSW 11:57:28 55° NW 12:10:13 10° NE daylight
17 Jun - 13:53:25 10° W 14:01:47 18° NW 14:09:14 10° NNW daylight
18 Jun - 02:50:35 10° NNW 02:57:39 32° NE 03:07:31 10° ESE visible
18 Jun - 04:52:20 10° WNW 05:01:55 84° NNE 05:16:00 10° ESE visible
18 Jun - 06:57:04 10° W 07:08:55 71° S 07:24:12 10° E daylight
18 Jun - 09:02:54 10° WSW 09:16:57 82° SSE 09:32:05 10° ENE daylight
18 Jun - 11:09:19 10° WSW 11:23:59 61° NW 11:37:23 10° NE daylight
18 Jun - 13:18:42 10° W 13:28:44 22° NW 13:37:38 10° N daylight
19 Jun - 02:18:42 10° N 02:24:57 26° NE 02:33:23 10° E visible
19 Jun - 04:19:47 10° NW 04:28:43 78° NNE 04:42:07 10° ESE visible
19 Jun - 06:24:08 10° W 06:35:18 72° S 06:50:19 10° ESE visible
19 Jun - 08:29:43 10° WSW 08:43:12 79° SSE 08:58:31 10° ENE daylight
19 Jun - 10:35:50 10° WSW 10:50:25 66° NNW 11:04:26 10° NE daylight
19 Jun - 12:44:20 10° W 12:55:35 26° NW 13:05:40 10° N daylight
20 Jun - 01:47:03 10° N 01:52:19 21° NE 01:59:08 10° E visible
20 Jun - 03:47:19 10° NW 03:55:37 71° NNE 04:08:16 10° ESE visible
20 Jun - 05:51:18 10° W 06:01:45 73° S 06:16:25 10° ESE visible
20 Jun - 07:56:37 10° WSW 08:09:27 76° SSE 08:24:52 10° E daylight
20 Jun - 10:02:27 10° WSW 10:16:49 71° NNW 10:31:20 10° NE daylight
20 Jun - 12:10:14 10° W 12:22:22 31° NW 12:33:27 10° N daylight
21 Jun - 01:15:44 10° NNE 01:19:47 16° NE 01:24:39 10° E visible
21 Jun - 03:14:57 10° NW 03:22:38 63° NNE 03:34:25 10° ESE visible
21 Jun - 05:18:32 10° W 05:28:18 74° S 05:42:30 10° ESE visible
21 Jun - 07:23:36 10° WSW 07:35:46 74° S 07:51:05 10° E daylight
21 Jun - 09:29:10 10° WSW 09:43:11 76° NNW 09:58:06 10° NE daylight
21 Jun - 11:36:20 10° WSW 11:49:03 35° NW 12:01:02 10° NNE daylight
22 Jun - 00:45:25 10° NE 00:47:16 11° NE 00:49:16 10° ENE night (unlit)
22 Jun - 02:42:40 10° NW 02:49:45 55° NE 03:00:35 10° ESE visible
22 Jun - 04:45:51 10° W 04:54:57 76° SSW 05:08:35 10° ESE visible
22 Jun - 06:50:41 10° WSW 07:02:08 72° S 07:17:14 10° E daylight
22 Jun - 08:56:00 10° WSW 09:09:32 81° NNW 09:24:45 10° ENE daylight
22 Jun - 11:02:37 10° WSW 11:15:41 40° NW 11:28:26 10° NNE daylight
23 Jun - 02:10:28 10° NNW 02:16:59 47° NE 02:26:47 10° ESE visible
23 Jun - 04:13:15 10° WNW 04:21:42 79° SSW 04:34:40 10° ESE visible
23 Jun - 06:17:50 10° WSW 06:28:33 70° S 06:43:19 10° E visible
23 Jun - 08:22:54 10° WSW 08:35:53 86° NNW 08:51:15 10° ENE daylight
23 Jun - 10:29:03 10° WSW 10:42:15 44° NW 10:55:40 10° NNE daylight
23 Jun - 12:41:57 10° WNW 12:46:55 12° NW 12:51:46 10° NW daylight
24 Jun - 01:38:22 10° NNW 01:44:19 39° NE 01:53:00 10° ESE visible
24 Jun - 03:40:42 10° WNW 03:48:34 83° SSW 04:00:49 10° ESE visible
24 Jun - 05:45:04 10° W 05:55:04 69° S 06:09:21 10° E visible
24 Jun - 07:49:54 10° WSW 08:02:16 90° NNW 08:17:38 10° ENE daylight
24 Jun - 09:55:39 10° WSW 10:08:46 49° NW 10:22:44 10° NNE daylight
24 Jun - 12:06:19 10° W 12:13:45 16° NW 12:21:02 10° NNW daylight
25 Jun - 01:06:23 10° NNW 01:11:44 32° NE 01:19:14 10° ESE visible
25 Jun - 03:08:14 10° WNW 03:15:32 88° SSW 03:27:00 10° ESE visible
25 Jun - 05:12:20 10° W 05:21:40 67° S 05:35:22 10° E visible
25 Jun - 07:17:00 10° WSW 07:28:42 86° SSE 07:43:57 10° ENE daylight
25 Jun - 09:22:22 10° WSW 09:35:16 53° NW 09:49:40 10° NE daylight
25 Jun - 11:31:35 10° W 11:40:32 19° NW 11:49:27 10° NNW daylight
26 Jun - 00:34:31 10° N 00:39:12 25° NE 00:45:27 10° E night (unlit)
26 Jun - 02:35:49 10° WNW 02:42:35 86° NNE 02:53:14 10° ESE visible
26 Jun - 04:39:41 10° W 04:48:21 67° S 05:01:24 10° E visible
26 Jun - 06:44:10 10° WSW 06:55:10 82° SSE 07:10:08 10° ENE daylight
26 Jun - 08:49:12 10° WSW 09:01:45 58° NW 09:16:27 10° NE daylight
26 Jun - 10:57:21 10° W 11:07:15 22° NW 11:17:25 10° N daylight
